Time,TemperatureF,DewpointF,PressureIn,WindDirection,WindDirectionDegrees,WindSpeedMPH,WindSpeedGustMPH,Humidity,HourlyPrecipIn,Conditions,Clouds,dailyrainin,SoftwareType,DateUTC
2013-03-05 00:00:00,45.0,42.2,30.17,NNW,336,0.0,0.0,90,0.00,,---,0.00,VWS V14.00,2013-03-05 05:00:00,
2013-03-05 00:05:00,44.8,42.0,30.16,NNW,336,0.0,0.0,90,0.00,,---,0.00,VWS V14.00,2013-03-05 05:05:00,
2013-03-05 00:10:00,44.6,41.8,30.16,NNW,336,0.0,0.0,90,0.00,,---,0.00,VWS V14.00,2013-03-05 05:10:00,
2013-03-05 00:15:00,44.5,41.8,30.16,NNW,336,0.0,0.0,90,0.00,,---,0.00,VWS V14.00,2013-03-05 05:15:00,
2013-03-05 00:20:00,44.3,41.8,30.15,NNW,336,0.0,0.0,91,0.00,,---,0.00,VWS V14.00,2013-03-05 05:20:00,
2013-03-05 00:25:00,44.2,41.5,30.16,NNW,336,0.0,0.0,90,0.00,,---,0.00,VWS V14.00,2013-03-05 05:25:00,
2013-03-05 00:30:00,44.1,41.7,30.15,NNW,336,0.0,0.0,91,0.00,,---,0.00,VWS V14.00,2013-03-05 05:30:00,
2013-03-05 00:35:00,44.0,41.3,30.15,NNW,336,0.0,0.0,90,0.00,,---,0.00,VWS V14.00,2013-03-05 05:35:00,
2013-03-05 00:40:00,43.9,41.2,30.15,NNW,336,0.0,0.0,90,0.00,,---,0.00,VWS V14.00,2013-03-05 05:40:00,
2013-03-05 00:45:00,43.8,41.1,30.15,NNW,336,0.0,0.0,90,0.00,,---,0.00,VWS V14.00,2013-03-05 05:45:00,
2013-03-05 00:50:00,43.6,40.9,30.15,NNW,336,0.0,0.0,90,0.00,,---,0.00,VWS V14.00,2013-03-05 05:50:00,
2013-03-05 00:55:00,43.6,41.2,30.15,NNW,336,0.0,0.0,91,0.00,,---,0.00,VWS V14.00,2013-03-05 05:55:00,
2013-03-05 01:00:00,43.5,41.0,30.15,NNW,336,0.0,0.0,91,0.00,,---,0.00,VWS V14.00,2013-03-05 06:00:00,
2013-03-05 01:05:00,43.4,41.0,30.15,NNW,336,0.0,0.0,91,0.00,,---,0.00,VWS V14.00,2013-03-05 06:05:00,
2013-03-05 01:10:00,43.4,41.0,30.15,NNW,336,0.0,0.0,91,0.00,,---,0.00,VWS V14.00,2013-03-05 06:10:00,
2013-03-05 01:15:00,43.3,40.8,30.15,NNW,336,0.0,0.0,91,0.00,,---,0.00,VWS V14.00,2013-03-05 06:15:00,
2013-03-05 01:20:00,43.2,40.8,30.14,NNW,336,0.0,0.0,91,0.00,,---,0.00,VWS V14.00,2013-03-05 06:20:00,
2013-03-05 01:25:00,43.1,40.7,30.14,NNW,336,0.0,0.0,91,0.00,,---,0.00,VWS V14.00,2013-03-05 06:25:00,
2013-03-05 01:30:00,42.9,40.5,30.14,NNW,336,0.0,0.0,91,0.00,,---,0.00,VWS V14.00,2013-03-05 06:30:00,
2013-03-05 01:35:00,42.8,40.4,30.14,NNW,336,0.0,0.0,91,0.00,,---,0.00,VWS V14.00,2013-03-05 06:35:00,
2013-03-05 01:40:00,42.6,40.2,30.14,NNW,336,0.0,0.0,91,0.00,,---,0.00,VWS V14.00,2013-03-05 06:40:00,
2013-03-05 01:45:00,42.5,40.1,30.14,NNW,336,0.0,0.0,91,0.00,,---,0.00,VWS V14.00,2013-03-05 06:45:00,
2013-03-05 01:50:00,42.4,40.0,30.13,NNW,336,0.0,0.0,91,0.00,,---,0.00,VWS V14.00,2013-03-05 06:50:00,
2013-03-05 01:55:00,41.8,39.4,30.12,NNW,336,0.0,0.0,91,0.00,,---,0.00,VWS V14.00,2013-03-05 06:55:00,
2013-03-05 01:56:00,42.2,39.8,30.13,NNW,336,0.0,0.0,91,0.00,,---,0.00,VWS V14.00,2013-03-05 06:56:00,
2013-03-05 02:00:00,41.7,39.3,30.12,NNW,336,0.0,0.0,91,0.00,,---,0.00,VWS V14.00,2013-03-05 07:00:00,
2013-03-05 02:01:00,42.2,40.0,30.13,NNW,336,0.0,0.0,92,0.00,,---,0.00,VWS V14.00,2013-03-05 07:01:00,
2013-03-05 02:05:00,41.6,39.2,30.13,NNW,336,0.0,0.0,91,0.00,,---,0.00,VWS V14.00,2013-03-05 07:05:00,
2013-03-05 02:06:00,42.1,40.0,30.13,NNW,336,0.0,0.0,92,0.00,,---,0.00,VWS V14.00,2013-03-05 07:06:00,
2013-03-05 02:10:00,41.5,39.3,30.13,NNW,336,0.0,0.0,92,0.00,,---,0.00,VWS V14.00,2013-03-05 07:10:00,
2013-03-05 02:11:00,42.1,40.0,30.13,NNW,336,0.0,0.0,92,0.00,,---,0.00,VWS V14.00,2013-03-05 07:11:00,
2013-03-05 02:15:00,41.5,39.1,30.12,NNW,336,0.0,0.0,91,0.00,,---,0.00,VWS V14.00,2013-03-05 07:15:00,
2013-03-05 02:16:00,42.2,40.0,30.13,NNW,336,0.0,0.0,92,0.00,,---,0.00,VWS V14.00,2013-03-05 07:16:00,
2013-03-05 02:20:00,41.4,39.0,30.12,NNW,336,0.0,0.0,91,0.00,,---,0.00,VWS V14.00,2013-03-05 07:20:00,
2013-03-05 02:21:00,42.2,40.0,30.13,NNW,336,0.0,0.0,92,0.00,,---,0.00,VWS V14.00,2013-03-05 07:21:00,
2013-03-05 02:25:00,41.3,38.9,30.12,NNW,336,0.0,0.0,91,0.00,,---,0.00,VWS V14.00,2013-03-05 07:25:00,
2013-03-05 02:26:00,42.1,40.0,30.13,NNW,336,0.0,0.0,92,0.00,,---,0.00,VWS V14.00,2013-03-05 07:26:00,
2013-03-05 02:30:00,41.2,38.8,30.12,NNW,336,0.0,0.0,91,0.00,,---,0.00,VWS V14.00,2013-03-05 07:30:00,
2013-03-05 02:31:00,42.2,40.3,30.13,NNW,336,0.0,0.0,93,0.00,,---,0.00,VWS V14.00,2013-03-05 07:31:00,
2013-03-05 02:35:00,41.2,38.8,30.12,NNW,336,0.0,0.0,91,0.00,,---,0.00,VWS V14.00,2013-03-05 07:35:00,
2013-03-05 02:36:00,42.2,40.0,30.12,NNW,336,0.0,0.0,92,0.00,,---,0.00,VWS V14.00,2013-03-05 07:36:00,
2013-03-05 02:40:00,41.2,38.8,30.12,NNW,336,0.0,0.0,91,0.00,,---,0.00,VWS V14.00,2013-03-05 07:40:00,
2013-03-05 02:41:00,42.2,40.0,30.12,NNW,336,0.0,0.0,92,0.00,,---,0.00,VWS V14.00,2013-03-05 07:41:00,
2013-03-05 02:45:00,41.2,38.8,30.12,NNW,336,0.0,0.0,91,0.00,,---,0.00,VWS V14.00,2013-03-05 07:45:00,
2013-03-05 02:46:00,42.1,40.0,30.13,NNW,336,0.0,0.0,92,0.00,,---,0.00,VWS V14.00,2013-03-05 07:46:00,
2013-03-05 02:50:00,41.2,38.8,30.12,NNW,336,0.0,0.0,91,0.00,,---,0.00,VWS V14.00,2013-03-05 07:50:00,
2013-03-05 02:51:00,41.9,39.5,30.12,NNW,336,0.0,0.0,91,0.00,,---,0.00,VWS V14.00,2013-03-05 07:51:00,
2013-03-05 02:55:00,41.1,38.7,30.12,NNW,336,0.0,0.0,91,0.00,,---,0.00,VWS V14.00,2013-03-05 07:55:00,
2013-03-05 02:56:00,41.8,39.4,30.12,NNW,336,0.0,0.0,91,0.00,,---,0.00,VWS V14.00,2013-03-05 07:56:00,
2013-03-05 03:00:00,41.2,38.8,30.12,NNW,336,0.0,0.0,91,0.00,,---,0.00,VWS V14.00,2013-03-05 08:00:00,
2013-03-05 03:01:00,41.6,39.2,30.12,NNW,336,0.0,0.0,91,0.00,,---,0.00,VWS V14.00,2013-03-05 08:01:00,
2013-03-05 03:05:00,41.4,39.2,30.12,NNW,336,0.0,0.0,92,0.00,,---,0.00,VWS V14.00,2013-03-05 08:05:00,
2013-03-05 03:06:00,41.5,39.1,30.12,NNW,336,0.0,0.0,91,0.00,,---,0.00,VWS V14.00,2013-03-05 08:06:00,
2013-03-05 03:10:00,41.6,39.5,30.12,NNW,336,0.0,0.0,92,0.00,,---,0.00,VWS V14.00,2013-03-05 08:10:00,
2013-03-05 03:11:00,41.5,39.3,30.13,NNW,336,0.0,0.0,92,0.00,,---,0.00,VWS V14.00,2013-03-05 08:11:00,
2013-03-05 03:15:00,41.6,39.5,30.12,NNW,336,0.0,0.0,92,0.00,,---,0.00,VWS V14.00,2013-03-05 08:15:00,
2013-03-05 03:16:00,41.4,39.0,30.12,NNW,336,0.0,0.0,91,0.00,,---,0.00,VWS V14.00,2013-03-05 08:16:00,
2013-03-05 03:20:00,41.6,39.2,30.12,NNW,336,0.0,0.0,91,0.00,,---,0.00,VWS V14.00,2013-03-05 08:20:00,
2013-03-05 03:21:00,41.4,39.0,30.12,NNW,336,0.0,0.0,91,0.00,,---,0.00,VWS V14.00,2013-03-05 08:21:00,
2013-03-05 03:25:00,41.5,39.1,30.12,NNW,336,0.0,0.0,91,0.00,,---,0.00,VWS V14.00,2013-03-05 08:25:00,
2013-03-05 03:26:00,41.2,38.8,30.12,NNW,336,0.0,0.0,91,0.00,,---,0.00,VWS V14.00,2013-03-05 08:26:00,
2013-03-05 03:30:00,41.4,39.0,30.12,NNW,336,0.0,0.0,91,0.00,,---,0.00,VWS V14.00,2013-03-05 08:30:00,
2013-03-05 03:31:00,41.2,38.8,30.12,NNW,336,0.0,0.0,91,0.00,,---,0.00,VWS V14.00,2013-03-05 08:31:00,
2013-03-05 03:35:00,41.3,39.2,30.12,NNW,336,0.0,0.0,92,0.00,,---,0.00,VWS V14.00,2013-03-05 08:35:00,
2013-03-05 03:36:00,41.2,38.8,30.12,NNW,336,0.0,0.0,91,0.00,,---,0.00,VWS V14.00,2013-03-05 08:36:00,
2013-03-05 03:40:00,41.3,38.9,30.12,NNW,336,0.0,0.0,91,0.00,,---,0.00,VWS V14.00,2013-03-05 08:40:00,
2013-03-05 03:41:00,41.2,38.8,30.12,NNW,336,0.0,0.0,91,0.00,,---,0.00,VWS V14.00,2013-03-05 08:41:00,
2013-03-05 03:45:00,41.4,39.0,30.12,NNW,336,0.0,0.0,91,0.00,,---,0.00,VWS V14.00,2013-03-05 08:45:00,
2013-03-05 03:46:00,41.2,38.8,30.12,NNW,336,0.0,0.0,91,0.00,,---,0.00,VWS V14.00,2013-03-05 08:46:00,
2013-03-05 03:50:00,41.5,39.1,30.12,NNW,336,0.0,0.0,91,0.00,,---,0.00,VWS V14.00,2013-03-05 08:50:00,
2013-03-05 03:51:00,41.1,38.7,30.12,NNW,336,0.0,0.0,91,0.00,,---,0.00,VWS V14.00,2013-03-05 08:51:00,
2013-03-05 03:55:00,41.6,39.2,30.12,NNW,336,0.0,0.0,91,0.00,,---,0.00,VWS V14.00,2013-03-05 08:55:00,
2013-03-05 03:56:00,41.1,38.7,30.12,NNW,336,0.0,0.0,91,0.00,,---,0.00,VWS V14.00,2013-03-05 08:56:00,
2013-03-05 04:00:00,41.8,39.1,30.12,NNW,336,0.0,0.0,90,0.00,,---,0.00,VWS V14.00,2013-03-05 09:00:00,
2013-03-05 04:01:00,41.2,38.8,30.12,NNW,336,0.0,0.0,91,0.00,,---,0.00,VWS V14.00,2013-03-05 09:01:00,
2013-03-05 04:05:00,41.9,39.2,30.12,NNW,336,0.0,0.0,90,0.00,,---,0.00,VWS V14.00,2013-03-05 09:05:00,
2013-03-05 04:06:00,41.4,39.2,30.12,NNW,336,0.0,0.0,92,0.00,,---,0.00,VWS V14.00,2013-03-05 09:06:00,
2013-03-05 04:10:00,42.0,39.3,30.13,NNW,336,0.0,0.0,90,0.00,,---,0.00,VWS V14.00,2013-03-05 09:10:00,
2013-03-05 04:11:00,41.6,39.5,30.12,NNW,336,0.0,0.0,92,0.00,,---,0.00,VWS V14.00,2013-03-05 09:11:00,
2013-03-05 04:15:00,42.1,39.4,30.12,NNW,336,0.0,0.0,90,0.00,,---,0.00,VWS V14.00,2013-03-05 09:15:00,
2013-03-05 04:16:00,41.6,39.2,30.12,NNW,336,0.0,0.0,91,0.00,,---,0.00,VWS V14.00,2013-03-05 09:16:00,
2013-03-05 04:20:00,42.2,39.5,30.13,NNW,336,0.0,0.0,90,0.00,,---,0.00,VWS V14.00,2013-03-05 09:20:00,
2013-03-05 04:21:00,41.5,39.1,30.12,NNW,336,0.0,0.0,91,0.00,,---,0.00,VWS V14.00,2013-03-05 09:21:00,
2013-03-05 04:25:00,42.3,39.6,30.13,NNW,336,0.0,0.0,90,0.00,,---,0.00,VWS V14.00,2013-03-05 09:25:00,
2013-03-05 04:26:00,41.4,39.0,30.12,NNW,336,0.0,0.0,91,0.00,,---,0.00,VWS V14.00,2013-03-05 09:26:00,
2013-03-05 04:30:00,42.3,39.6,30.13,NNW,336,0.0,0.0,90,0.00,,---,0.00,VWS V14.00,2013-03-05 09:30:00,
2013-03-05 04:31:00,41.4,39.2,30.12,NNW,336,0.0,0.0,92,0.00,,---,0.00,VWS V14.00,2013-03-05 09:31:00,
2013-03-05 04:35:00,42.3,39.6,30.13,NNW,336,0.0,0.0,90,0.00,,---,0.00,VWS V14.00,2013-03-05 09:35:00,
2013-03-05 04:36:00,41.3,39.2,30.12,NNW,336,0.0,0.0,92,0.00,,---,0.00,VWS V14.00,2013-03-05 09:36:00,
2013-03-05 04:40:00,42.4,39.7,30.14,NNW,336,0.0,0.0,90,0.00,,---,0.00,VWS V14.00,2013-03-05 09:40:00,
2013-03-05 04:41:00,41.4,39.0,30.12,NNW,336,0.0,0.0,91,0.00,,---,0.00,VWS V14.00,2013-03-05 09:41:00,
2013-03-05 04:45:00,42.4,39.7,30.14,NNW,336,0.0,0.0,90,0.00,,---,0.00,VWS V14.00,2013-03-05 09:45:00,
2013-03-05 04:46:00,41.5,39.1,30.12,NNW,336,0.0,0.0,91,0.00,,---,0.00,VWS V14.00,2013-03-05 09:46:00,
2013-03-05 04:50:00,42.4,39.7,30.14,NNW,336,0.0,0.0,90,0.00,,---,0.00,VWS V14.00,2013-03-05 09:50:00,
2013-03-05 04:51:00,41.5,39.1,30.12,NNW,336,0.0,0.0,91,0.00,,---,0.00,VWS V14.00,2013-03-05 09:51:00,
2013-03-05 04:55:00,42.3,39.9,30.14,NNW,336,0.0,0.0,91,0.00,,---,0.00,VWS V14.00,2013-03-05 09:55:00,
2013-03-05 04:56:00,41.7,39.3,30.12,NNW,336,0.0,0.0,91,0.00,,---,0.00,VWS V14.00,2013-03-05 09:56:00,
2013-03-05 05:00:00,42.4,40.0,30.14,NNW,336,0.0,0.0,91,0.00,,---,0.00,VWS V14.00,2013-03-05 10:00:00,
2013-03-05 05:01:00,41.8,39.1,30.12,NNW,336,0.0,0.0,90,0.00,,---,0.00,VWS V14.00,2013-03-05 10:01:00,
2013-03-05 05:05:00,42.4,40.0,30.15,NNW,336,0.0,0.0,91,0.00,,---,0.00,VWS V14.00,2013-03-05 10:05:00,
2013-03-05 05:06:00,41.9,39.2,30.12,NNW,336,0.0,0.0,90,0.00,,---,0.00,VWS V14.00,2013-03-05 10:06:00,
2013-03-05 05:10:00,42.5,40.1,30.15,NNW,336,0.0,0.0,91,0.00,,---,0.00,VWS V14.00,2013-03-05 10:10:00,
2013-03-05 05:11:00,42.0,39.3,30.13,NNW,336,0.0,0.0,90,0.00,,---,0.00,VWS V14.00,2013-03-05 10:11:00,
2013-03-05 05:15:00,42.5,40.1,30.14,NNW,336,0.0,0.0,91,0.00,,---,0.00,VWS V14.00,2013-03-05 10:15:00,
2013-03-05 05:16:00,42.2,39.5,30.13,NNW,336,0.0,0.0,90,0.00,,---,0.00,VWS V14.00,2013-03-05 10:16:00,
2013-03-05 05:20:00,42.6,40.2,30.15,NNW,336,0.0,0.0,91,0.00,,---,0.00,VWS V14.00,2013-03-05 10:20:00,
2013-03-05 05:21:00,42.3,39.6,30.13,NNW,336,0.0,0.0,90,0.00,,---,0.00,VWS V14.00,2013-03-05 10:21:00,
2013-03-05 05:25:00,42.5,40.1,30.15,NNW,336,0.0,0.0,91,0.00,,---,0.00,VWS V14.00,2013-03-05 10:25:00,
2013-03-05 05:26:00,42.3,39.6,30.13,NNW,336,0.0,0.0,90,0.00,,---,0.00,VWS V14.00,2013-03-05 10:26:00,
2013-03-05 05:30:00,42.4,40.0,30.15,NNW,336,0.0,0.0,91,0.00,,---,0.00,VWS V14.00,2013-03-05 10:30:00,
2013-03-05 05:31:00,42.3,39.6,30.13,NNW,336,0.0,0.0,90,0.00,,---,0.00,VWS V14.00,2013-03-05 10:31:00,
2013-03-05 05:35:00,42.4,40.0,30.14,NNW,336,0.0,0.0,91,0.00,,---,0.00,VWS V14.00,2013-03-05 10:35:00,
2013-03-05 05:36:00,42.4,39.7,30.13,NNW,336,0.0,0.0,90,0.00,,---,0.00,VWS V14.00,2013-03-05 10:36:00,
2013-03-05 05:40:00,42.3,40.2,30.15,NNW,336,0.0,0.0,92,0.00,,---,0.00,VWS V14.00,2013-03-05 10:40:00,
2013-03-05 05:41:00,42.4,39.7,30.14,NNW,336,0.0,0.0,90,0.00,,---,0.00,VWS V14.00,2013-03-05 10:41:00,
2013-03-05 05:45:00,42.3,40.2,30.14,NNW,336,0.0,0.0,92,0.00,,---,0.00,VWS V14.00,2013-03-05 10:45:00,
2013-03-05 05:46:00,42.4,39.7,30.14,NNW,336,0.0,0.0,90,0.00,,---,0.00,VWS V14.00,2013-03-05 10:46:00,
2013-03-05 05:50:00,42.3,40.2,30.14,NNW,336,0.0,0.0,92,0.00,,---,0.00,VWS V14.00,2013-03-05 10:50:00,
2013-03-05 05:51:00,42.4,39.7,30.14,NNW,336,0.0,0.0,90,0.00,,---,0.00,VWS V14.00,2013-03-05 10:51:00,
2013-03-05 05:55:00,42.3,40.4,30.14,NNW,336,0.0,0.0,93,0.00,,---,0.00,VWS V14.00,2013-03-05 10:55:00,
2013-03-05 05:56:00,42.4,40.0,30.14,NNW,336,0.0,0.0,91,0.00,,---,0.00,VWS V14.00,2013-03-05 10:56:00,
2013-03-05 06:00:00,42.4,40.5,30.15,NNW,336,0.0,0.0,93,0.00,,---,0.00,VWS V14.00,2013-03-05 11:00:00,
2013-03-05 06:01:00,42.4,40.0,30.14,NNW,336,0.0,0.0,91,0.00,,---,0.00,VWS V14.00,2013-03-05 11:01:00,
2013-03-05 06:05:00,42.5,40.6,30.15,NNW,336,0.0,0.0,93,0.00,,---,0.00,VWS V14.00,2013-03-05 11:05:00,
2013-03-05 06:06:00,42.5,40.1,30.15,NNW,336,0.0,0.0,91,0.00,,---,0.00,VWS V14.00,2013-03-05 11:06:00,
2013-03-05 06:10:00,42.6,40.7,30.15,NNW,336,0.0,0.0,93,0.00,,---,0.00,VWS V14.00,2013-03-05 11:10:00,
2013-03-05 06:11:00,42.5,40.1,30.15,NNW,336,0.0,0.0,91,0.00,,---,0.00,VWS V14.00,2013-03-05 11:11:00,
2013-03-05 06:15:00,42.7,40.8,30.15,NNW,336,0.0,0.0,93,0.00,,---,0.00,VWS V14.00,2013-03-05 11:15:00,
2013-03-05 06:16:00,42.5,40.1,30.15,NNW,336,0.0,0.0,91,0.00,,---,0.00,VWS V14.00,2013-03-05 11:16:00,
2013-03-05 06:20:00,42.9,41.0,30.15,NNW,336,0.0,0.0,93,0.00,,---,0.00,VWS V14.00,2013-03-05 11:20:00,
2013-03-05 06:21:00,42.6,40.2,30.15,NNW,336,0.0,0.0,91,0.00,,---,0.00,VWS V14.00,2013-03-05 11:21:00,
2013-03-05 06:25:00,43.2,41.3,30.15,NNW,336,0.0,0.0,93,0.00,,---,0.00,VWS V14.00,2013-03-05 11:25:00,
2013-03-05 06:26:00,42.5,40.1,30.15,NNW,336,0.0,0.0,91,0.00,,---,0.00,VWS V14.00,2013-03-05 11:26:00,
2013-03-05 06:30:00,43.7,42.1,30.14,NNW,336,0.0,0.0,94,0.00,,---,0.00,VWS V14.00,2013-03-05 11:30:00,
2013-03-05 06:31:00,42.4,40.0,30.15,NNW,336,0.0,0.0,91,0.00,,---,0.00,VWS V14.00,2013-03-05 11:31:00,
2013-03-05 06:35:00,44.4,42.8,30.14,NNW,336,0.0,0.0,94,0.00,,---,0.00,VWS V14.00,2013-03-05 11:35:00,
2013-03-05 06:36:00,42.3,39.9,30.14,NNW,336,0.0,0.0,91,0.00,,---,0.00,VWS V14.00,2013-03-05 11:36:00,
2013-03-05 06:40:00,45.3,43.4,30.14,NNW,336,0.0,0.0,93,0.00,,---,0.00,VWS V14.00,2013-03-05 11:40:00,
2013-03-05 06:41:00,42.3,40.2,30.15,NNW,336,0.0,0.0,92,0.00,,---,0.00,VWS V14.00,2013-03-05 11:41:00,
2013-03-05 06:45:00,46.3,44.1,30.15,NNW,336,0.0,0.0,92,0.00,,---,0.00,VWS V14.00,2013-03-05 11:45:00,
2013-03-05 06:46:00,42.3,40.2,30.14,NNW,336,0.0,0.0,92,0.00,,---,0.00,VWS V14.00,2013-03-05 11:46:00,
2013-03-05 06:50:00,47.3,44.5,30.14,NNW,336,0.0,0.0,90,0.00,,---,0.00,VWS V14.00,2013-03-05 11:50:00,
2013-03-05 06:51:00,42.3,40.2,30.14,NNW,336,0.0,0.0,92,0.00,,---,0.00,VWS V14.00,2013-03-05 11:51:00,
2013-03-05 06:55:00,48.3,45.2,30.15,NNW,336,0.0,0.0,89,0.00,,---,0.00,VWS V14.00,2013-03-05 11:55:00,
2013-03-05 06:56:00,42.3,40.4,30.14,NNW,336,0.0,0.0,93,0.00,,---,0.00,VWS V14.00,2013-03-05 11:56:00,
2013-03-05 07:00:00,49.1,46.0,30.15,NNW,336,0.0,0.0,89,0.00,,---,0.00,VWS V14.00,2013-03-05 12:00:00,
2013-03-05 07:01:00,42.4,40.5,30.15,NNW,336,0.0,0.0,93,0.00,,---,0.00,VWS V14.00,2013-03-05 12:01:00,
2013-03-05 07:05:00,50.1,46.4,30.15,NNW,336,0.0,0.0,87,0.00,,---,0.00,VWS V14.00,2013-03-05 12:05:00,
2013-03-05 07:06:00,42.5,40.6,30.15,NNW,336,0.0,0.0,93,0.00,,---,0.00,VWS V14.00,2013-03-05 12:06:00,
2013-03-05 07:10:00,51.2,47.2,30.16,NNW,336,0.0,0.0,86,0.00,,---,0.00,VWS V14.00,2013-03-05 12:10:00,
2013-03-05 07:11:00,42.6,40.7,30.15,NNW,336,0.0,0.0,93,0.00,,---,0.00,VWS V14.00,2013-03-05 12:11:00,
2013-03-05 07:15:00,52.5,47.8,30.15,NNW,336,0.0,1.0,84,0.00,,---,0.00,VWS V14.00,2013-03-05 12:15:00,
2013-03-05 07:16:00,42.7,40.8,30.15,NNW,336,0.0,0.0,93,0.00,,---,0.00,VWS V14.00,2013-03-05 12:16:00,
2013-03-05 07:20:00,53.9,48.2,30.15,NNW,336,0.0,1.0,81,0.00,,---,0.00,VWS V14.00,2013-03-05 12:20:00,
2013-03-05 07:21:00,43.0,41.1,30.15,NNW,336,0.0,0.0,93,0.00,,---,0.00,VWS V14.00,2013-03-05 12:21:00,
2013-03-05 07:25:00,54.9,48.5,30.16,NNW,336,0.0,0.0,79,0.00,,---,0.00,VWS V14.00,2013-03-05 12:25:00,
2013-03-05 07:26:00,43.4,41.8,30.14,NNW,336,0.0,0.0,94,0.00,,---,0.00,VWS V14.00,2013-03-05 12:26:00,
2013-03-05 07:30:00,55.6,49.2,30.15,NNW,336,0.0,0.0,79,0.00,,---,0.00,VWS V14.00,2013-03-05 12:30:00,
2013-03-05 07:31:00,43.9,42.3,30.14,NNW,336,0.0,0.0,94,0.00,,---,0.00,VWS V14.00,2013-03-05 12:31:00,
2013-03-05 07:35:00,56.5,50.4,30.15,NNW,336,0.0,0.0,80,0.00,,---,0.00,VWS V14.00,2013-03-05 12:35:00,
2013-03-05 07:36:00,44.8,43.2,30.14,NNW,336,0.0,0.0,94,0.00,,---,0.00,VWS V14.00,2013-03-05 12:36:00,
2013-03-05 07:40:00,57.5,50.4,30.15,NNW,336,0.0,0.0,77,0.00,,---,0.00,VWS V14.00,2013-03-05 12:40:00,
2013-03-05 07:41:00,45.7,43.8,30.15,NNW,336,0.0,0.0,93,0.00,,---,0.00,VWS V14.00,2013-03-05 12:41:00,
2013-03-05 07:45:00,58.3,50.8,30.16,NNW,336,0.0,1.0,76,0.00,,---,0.00,VWS V14.00,2013-03-05 12:45:00,
2013-03-05 07:46:00,46.7,44.2,30.15,NNW,336,0.0,0.0,91,0.00,,---,0.00,VWS V14.00,2013-03-05 12:46:00,
2013-03-05 07:50:00,59.3,50.7,30.15,NNW,336,0.0,5.0,73,0.00,,---,0.00,VWS V14.00,2013-03-05 12:50:00,
2013-03-05 07:51:00,47.7,44.9,30.15,NNW,336,0.0,0.0,90,0.00,,---,0.00,VWS V14.00,2013-03-05 12:51:00,
2013-03-05 07:55:00,60.2,50.4,30.15,NNW,334,4.0,4.0,70,0.00,,---,0.00,VWS V14.00,2013-03-05 12:55:00,
2013-03-05 07:56:00,48.6,45.5,30.15,NNW,336,0.0,0.0,89,0.00,,---,0.00,VWS V14.00,2013-03-05 12:56:00,
2013-03-05 08:00:00,61.2,51.7,30.15,NNW,345,4.0,5.0,71,0.00,,---,0.00,VWS V14.00,2013-03-05 13:00:00,
2013-03-05 08:01:00,49.5,46.1,30.15,NNW,336,0.0,0.0,88,0.00,,---,0.00,VWS V14.00,2013-03-05 13:01:00,
2013-03-05 08:05:00,62.2,50.3,30.15,ESE,122,0.0,5.0,65,0.00,,---,0.00,VWS V14.00,2013-03-05 13:05:00,
2013-03-05 08:06:00,50.5,46.8,30.15,NNW,336,0.0,0.0,87,0.00,,---,0.00,VWS V14.00,2013-03-05 13:06:00,
2013-03-05 08:10:00,63.2,51.2,30.16,SSE,151,0.0,0.0,65,0.00,,---,0.00,VWS V14.00,2013-03-05 13:10:00,
2013-03-05 08:11:00,51.7,47.3,30.16,NNW,336,0.0,0.0,85,0.00,,---,0.00,VWS V14.00,2013-03-05 13:11:00,
2013-03-05 08:15:00,63.9,49.3,30.16,SSE,162,6.0,6.0,59,0.00,,---,0.00,VWS V14.00,2013-03-05 13:15:00,
2013-03-05 08:16:00,53.1,48.1,30.15,NNW,336,0.0,0.0,83,0.00,,---,0.00,VWS V14.00,2013-03-05 13:16:00,
2013-03-05 08:20:00,64.7,49.6,30.16,SSE,156,2.0,6.0,58,0.00,,---,0.00,VWS V14.00,2013-03-05 13:20:00,
2013-03-05 08:21:00,54.4,48.7,30.16,NNW,336,0.0,0.0,81,0.00,,---,0.00,VWS V14.00,2013-03-05 13:21:00,
2013-03-05 08:25:00,65.4,49.8,30.16,SSE,162,6.0,7.0,57,0.00,,---,0.00,VWS V14.00,2013-03-05 13:25:00,
2013-03-05 08:26:00,55.1,48.7,30.16,NNW,336,0.0,0.0,79,0.00,,---,0.00,VWS V14.00,2013-03-05 13:26:00,
2013-03-05 08:30:00,65.7,51.0,30.15,SSE,153,1.0,7.0,59,0.00,,---,0.00,VWS V14.00,2013-03-05 13:30:00,
2013-03-05 08:31:00,55.9,49.2,30.16,NNW,336,0.0,0.0,78,0.00,,---,0.00,VWS V14.00,2013-03-05 13:31:00,
2013-03-05 08:35:00,66.7,50.5,30.15,SSE,153,6.0,8.0,56,0.00,,---,0.00,VWS V14.00,2013-03-05 13:35:00,
2013-03-05 08:36:00,56.9,49.8,30.16,NNW,336,0.0,0.0,77,0.00,,---,0.00,VWS V14.00,2013-03-05 13:36:00,
2013-03-05 08:40:00,67.0,51.8,30.16,SSE,153,0.0,6.0,58,0.00,,---,0.00,VWS V14.00,2013-03-05 13:40:00,
2013-03-05 08:41:00,57.8,50.3,30.15,NNW,336,0.0,0.0,76,0.00,,---,0.00,VWS V14.00,2013-03-05 13:41:00,
2013-03-05 08:45:00,67.6,51.4,30.15,SSE,148,0.0,6.0,56,0.00,,---,0.00,VWS V14.00,2013-03-05 13:45:00,
2013-03-05 08:46:00,58.6,51.1,30.15,NNW,336,0.0,0.0,76,0.00,,---,0.00,VWS V14.00,2013-03-05 13:46:00,
2013-03-05 08:50:00,68.0,51.2,30.15,SSE,154,0.0,6.0,55,0.00,,---,0.00,VWS V14.00,2013-03-05 13:50:00,
2013-03-05 08:51:00,59.7,51.0,30.15,NNW,336,0.0,0.0,73,0.00,,---,0.00,VWS V14.00,2013-03-05 13:51:00,
2013-03-05 08:55:00,68.5,52.2,30.15,SE,141,5.0,8.0,56,0.00,,---,0.00,VWS V14.00,2013-03-05 13:55:00,
2013-03-05 08:56:00,60.5,50.7,30.15,NNW,333,1.0,5.0,70,0.00,,---,0.00,VWS V14.00,2013-03-05 13:56:00,
2013-03-05 09:00:00,69.1,51.8,30.15,SE,127,4.0,8.0,54,0.00,,---,0.00,VWS V14.00,2013-03-05 14:00:00,
2013-03-05 09:01:00,61.6,50.5,30.15,North,355,2.0,5.0,67,0.00,,---,0.00,VWS V14.00,2013-03-05 14:01:00,
2013-03-05 09:05:00,70.0,52.6,30.15,South,171,1.0,7.0,54,0.00,,---,0.00,VWS V14.00,2013-03-05 14:05:00,
2013-03-05 09:06:00,62.6,51.1,30.15,ESE,122,0.0,0.0,66,0.00,,---,0.00,VWS V14.00,2013-03-05 14:06:00,
2013-03-05 09:10:00,70.5,53.6,30.15,SSW,198,4.0,9.0,55,0.00,,---,0.00,VWS V14.00,2013-03-05 14:10:00,
2013-03-05 09:11:00,63.4,50.2,30.16,SSE,150,0.0,0.0,62,0.00,,---,0.00,VWS V14.00,2013-03-05 14:11:00,
2013-03-05 09:15:00,70.8,53.3,30.15,SE,139,3.0,10.0,54,0.00,,---,0.00,VWS V14.00,2013-03-05 14:15:00,
2013-03-05 09:16:00,64.1,49.5,30.16,SSE,155,4.0,6.0,59,0.00,,---,0.00,VWS V14.00,2013-03-05 14:16:00,
2013-03-05 09:20:00,71.5,55.0,30.15,SE,132,4.0,7.0,56,0.00,,---,0.00,VWS V14.00,2013-03-05 14:20:00,
2013-03-05 09:21:00,65.0,49.9,30.16,SSE,154,1.0,6.0,58,0.00,,---,0.00,VWS V14.00,2013-03-05 14:21:00,
2013-03-05 09:25:00,72.2,54.7,30.15,SE,124,6.0,9.0,54,0.00,,---,0.00,VWS V14.00,2013-03-05 14:25:00,
2013-03-05 09:26:00,65.5,49.4,30.16,SSE,161,5.0,7.0,56,0.00,,---,0.00,VWS V14.00,2013-03-05 14:26:00,
2013-03-05 09:30:00,72.3,54.2,30.15,SE,142,6.0,8.0,53,0.00,,---,0.00,VWS V14.00,2013-03-05 14:30:00,
2013-03-05 09:31:00,66.1,50.9,30.15,SSE,152,4.0,5.0,58,0.00,,---,0.00,VWS V14.00,2013-03-05 14:31:00,
2013-03-05 09:35:00,72.0,55.0,30.15,South,186,5.0,11.0,55,0.00,,---,0.00,VWS V14.00,2013-03-05 14:35:00,
2013-03-05 09:36:00,66.8,51.1,30.16,SSE,153,0.0,6.0,57,0.00,,---,0.00,VWS V14.00,2013-03-05 14:36:00,
2013-03-05 09:40:00,72.2,54.1,30.15,SE,138,5.0,9.0,53,0.00,,---,0.00,VWS V14.00,2013-03-05 14:40:00,
2013-03-05 09:41:00,67.1,51.4,30.16,SE,146,0.0,0.0,57,0.00,,---,0.00,VWS V14.00,2013-03-05 14:41:00,
2013-03-05 09:45:00,72.4,54.8,30.15,SSE,163,0.0,9.0,54,0.00,,---,0.00,VWS V14.00,2013-03-05 14:45:00,
2013-03-05 09:46:00,67.7,51.0,30.15,SSE,152,0.0,0.0,55,0.00,,---,0.00,VWS V14.00,2013-03-05 14:46:00,
2013-03-05 09:50:00,72.1,53.5,30.15,SSW,207,8.0,10.0,52,0.00,,---,0.00,VWS V14.00,2013-03-05 14:50:00,
2013-03-05 09:51:00,68.0,51.7,30.15,SSE,147,5.0,5.0,56,0.00,,---,0.00,VWS V14.00,2013-03-05 14:51:00,
2013-03-05 09:55:00,71.5,53.5,30.15,South,182,5.0,8.0,53,0.00,,---,0.00,VWS V14.00,2013-03-05 14:55:00,
2013-03-05 09:56:00,68.8,52.5,30.15,SE,146,5.0,7.0,56,0.00,,---,0.00,VWS V14.00,2013-03-05 14:56:00,
2013-03-05 10:00:00,72.0,54.5,30.15,SW,219,1.0,8.0,54,0.00,,---,0.00,VWS V14.00,2013-03-05 15:00:00,
2013-03-05 10:01:00,69.3,53.0,30.15,SE,126,0.0,5.0,56,0.00,,---,0.00,VWS V14.00,2013-03-05 15:01:00,
2013-03-05 10:05:00,72.6,55.0,30.15,SW,221,4.0,9.0,54,0.00,,---,0.00,VWS V14.00,2013-03-05 15:05:00,
2013-03-05 10:06:00,70.2,53.8,30.15,SSE,157,4.0,7.0,56,0.00,,---,0.00,VWS V14.00,2013-03-05 15:06:00,
2013-03-05 10:10:00,72.9,54.3,30.15,SSE,167,4.0,7.0,52,0.00,,---,0.00,VWS V14.00,2013-03-05 15:10:00,
2013-03-05 10:11:00,70.6,53.2,30.15,SSE,151,8.0,8.0,54,0.00,,---,0.00,VWS V14.00,2013-03-05 15:11:00,
2013-03-05 10:15:00,73.0,54.4,30.15,SW,227,6.0,11.0,52,0.00,,---,0.00,VWS V14.00,2013-03-05 15:15:00,
2013-03-05 10:16:00,71.0,54.0,30.15,ESE,106,6.0,7.0,55,0.00,,---,0.00,VWS V14.00,2013-03-05 15:16:00,
2013-03-05 10:20:00,73.4,53.1,30.15,SW,220,9.0,12.0,49,0.00,,---,0.00,VWS V14.00,2013-03-05 15:20:00,
2013-03-05 10:21:00,71.8,54.8,30.15,SE,127,7.0,9.0,55,0.00,,---,0.00,VWS V14.00,2013-03-05 15:21:00,
2013-03-05 10:25:00,73.3,54.1,30.15,SSW,192,0.0,13.0,51,0.00,,---,0.00,VWS V14.00,2013-03-05 15:25:00,
2013-03-05 10:26:00,72.3,54.2,30.15,SE,134,3.0,6.0,53,0.00,,---,0.00,VWS V14.00,2013-03-05 15:26:00,
2013-03-05 10:30:00,73.2,54.0,30.15,SW,226,6.0,10.0,51,0.00,,---,0.00,VWS V14.00,2013-03-05 15:30:00,
2013-03-05 10:31:00,72.1,54.0,30.15,ESE,122,3.0,8.0,53,0.00,,---,0.00,VWS V14.00,2013-03-05 15:31:00,
2013-03-05 10:35:00,73.5,53.2,30.15,SW,216,4.0,8.0,49,0.00,,---,0.00,VWS V14.00,2013-03-05 15:35:00,
2013-03-05 10:36:00,72.0,55.5,30.15,SSE,166,1.0,6.0,56,0.00,,---,0.00,VWS V14.00,2013-03-05 15:36:00,
2013-03-05 10:40:00,73.8,52.3,30.14,SW,227,8.0,11.0,47,0.00,,---,0.00,VWS V14.00,2013-03-05 15:40:00,
2013-03-05 10:41:00,72.4,54.8,30.15,SSE,163,6.0,9.0,54,0.00,,---,0.00,VWS V14.00,2013-03-05 15:41:00,
2013-03-05 10:45:00,73.9,53.6,30.14,WSW,240,9.0,10.0,49,0.00,,---,0.00,VWS V14.00,2013-03-05 15:45:00,
2013-03-05 10:46:00,72.3,54.7,30.15,SW,217,8.0,10.0,54,0.00,,---,0.00,VWS V14.00,2013-03-05 15:46:00,
2013-03-05 10:50:00,73.8,54.0,30.14,SSW,205,4.0,12.0,50,0.00,,---,0.00,VWS V14.00,2013-03-05 15:50:00,
2013-03-05 10:51:00,71.9,53.9,30.15,SSW,211,5.0,8.0,53,0.00,,---,0.00,VWS V14.00,2013-03-05 15:51:00,
2013-03-05 10:55:00,74.5,53.0,30.14,South,182,4.0,8.0,47,0.00,,---,0.00,VWS V14.00,2013-03-05 15:55:00,
2013-03-05 10:56:00,71.5,55.0,30.15,SE,146,6.0,8.0,56,0.00,,---,0.00,VWS V14.00,2013-03-05 15:56:00,
2013-03-05 11:00:00,74.5,53.0,30.14,SW,220,6.0,7.0,47,0.00,,---,0.00,VWS V14.00,2013-03-05 16:00:00,
2013-03-05 11:01:00,72.3,55.7,30.15,SSE,167,3.0,9.0,56,0.00,,---,0.00,VWS V14.00,2013-03-05 16:01:00,
2013-03-05 11:05:00,74.3,51.6,30.14,SW,225,6.0,11.0,45,0.00,,---,0.00,VWS V14.00,2013-03-05 16:05:00,
2013-03-05 11:06:00,72.7,55.1,30.15,SW,221,2.0,4.0,54,0.00,,---,0.00,VWS V14.00,2013-03-05 16:06:00,
2013-03-05 11:10:00,74.6,50.7,30.14,SSW,204,3.0,10.0,43,0.00,,---,0.00,VWS V14.00,2013-03-05 16:10:00,
2013-03-05 11:11:00,72.9,54.3,30.15,SSW,196,2.0,8.0,52,0.00,,---,0.00,VWS V14.00,2013-03-05 16:11:00,
2013-03-05 11:15:00,75.0,52.2,30.13,SSE,157,6.0,8.0,45,0.00,,---,0.00,VWS V14.00,2013-03-05 16:15:00,
2013-03-05 11:16:00,73.1,55.0,30.15,SSE,165,2.0,7.0,53,0.00,,---,0.00,VWS V14.00,2013-03-05 16:16:00,
2013-03-05 11:20:00,75.6,52.2,30.13,SW,219,1.0,10.0,44,0.00,,---,0.00,VWS V14.00,2013-03-05 16:20:00,
2013-03-05 11:21:00,73.4,54.2,30.15,SW,220,3.0,13.0,51,0.00,,---,0.00,VWS V14.00,2013-03-05 16:21:00,
2013-03-05 11:25:00,75.5,52.1,30.12,SW,215,9.0,11.0,44,0.00,,---,0.00,VWS V14.00,2013-03-05 16:25:00,
2013-03-05 11:26:00,73.2,53.5,30.14,SW,225,7.0,9.0,50,0.00,,---,0.00,VWS V14.00,2013-03-05 16:26:00,
2013-03-05 11:30:00,75.6,48.9,30.12,SSW,199,1.0,9.0,39,0.00,,---,0.00,VWS V14.00,2013-03-05 16:30:00,
2013-03-05 11:31:00,73.3,53.6,30.15,SW,220,5.0,8.0,50,0.00,,---,0.00,VWS V14.00,2013-03-05 16:31:00,
2013-03-05 11:35:00,75.5,50.2,30.12,SSW,211,1.0,5.0,41,0.00,,---,0.00,VWS V14.00,2013-03-05 16:35:00,
2013-03-05 11:36:00,73.5,53.2,30.15,SE,145,8.0,8.0,49,0.00,,---,0.00,VWS V14.00,2013-03-05 16:36:00,
2013-03-05 11:40:00,76.1,49.4,30.11,SW,235,5.0,8.0,39,0.00,,---,0.00,VWS V14.00,2013-03-05 16:40:00,
2013-03-05 11:41:00,73.7,53.4,30.15,SSW,201,1.0,8.0,49,0.00,,---,0.00,VWS V14.00,2013-03-05 16:41:00,
2013-03-05 11:45:00,76.1,48.7,30.11,SSW,210,4.0,12.0,38,0.00,,---,0.00,VWS V14.00,2013-03-05 16:45:00,
2013-03-05 11:46:00,73.9,53.0,30.14,SW,215,6.0,12.0,48,0.00,,---,0.00,VWS V14.00,2013-03-05 16:46:00,
2013-03-05 11:50:00,76.3,51.5,30.11,SSW,212,4.0,6.0,42,0.00,,---,0.00,VWS V14.00,2013-03-05 16:50:00,
2013-03-05 11:51:00,73.9,54.1,30.14,SSE,162,2.0,7.0,50,0.00,,---,0.00,VWS V14.00,2013-03-05 16:51:00,
2013-03-05 11:55:00,76.8,51.3,30.11,SSW,203,3.0,5.0,41,0.00,,---,0.00,VWS V14.00,2013-03-05 16:55:00,
2013-03-05 11:56:00,74.5,54.1,30.14,South,185,4.0,6.0,49,0.00,,---,0.00,VWS V14.00,2013-03-05 16:56:00,
2013-03-05 12:00:00,77.3,53.7,30.11,SW,221,5.0,10.0,44,0.00,,---,0.00,VWS V14.00,2013-03-05 17:00:00,
2013-03-05 12:01:00,74.5,51.2,30.14,SW,227,10.0,11.0,44,0.00,,---,0.00,VWS V14.00,2013-03-05 17:01:00,
2013-03-05 12:05:00,77.3,51.8,30.10,SSE,165,5.0,7.0,41,0.00,,---,0.00,VWS V14.00,2013-03-05 17:05:00,
2013-03-05 12:06:00,74.3,51.0,30.14,SW,218,6.0,7.0,44,0.00,,---,0.00,VWS V14.00,2013-03-05 17:06:00,
2013-03-05 12:10:00,76.9,52.1,30.10,SW,236,5.0,11.0,42,0.00,,---,0.00,VWS V14.00,2013-03-05 17:10:00,
2013-03-05 12:11:00,74.6,51.9,30.13,SSE,157,1.0,7.0,45,0.00,,---,0.00,VWS V14.00,2013-03-05 17:11:00,
2013-03-05 12:15:00,77.0,50.9,30.09,SSW,204,0.0,7.0,40,0.00,,---,0.00,VWS V14.00,2013-03-05 17:15:00,
2013-03-05 12:16:00,75.2,52.4,30.13,South,170,3.0,10.0,45,0.00,,---,0.00,VWS V14.00,2013-03-05 17:16:00,
2013-03-05 12:20:00,77.4,53.2,30.09,West,267,1.0,7.0,43,0.00,,---,0.00,VWS V14.00,2013-03-05 17:20:00,
2013-03-05 12:21:00,75.5,50.8,30.13,SSW,202,4.0,7.0,42,0.00,,---,0.00,VWS V14.00,2013-03-05 17:21:00,
2013-03-05 12:25:00,77.7,52.8,30.09,SW,227,7.0,8.0,42,0.00,,---,0.00,VWS V14.00,2013-03-05 17:25:00,
2013-03-05 12:26:00,75.5,52.1,30.13,West,268,2.0,9.0,44,0.00,,---,0.00,VWS V14.00,2013-03-05 17:26:00,
2013-03-05 12:30:00,77.3,53.7,30.09,SSW,211,0.0,10.0,44,0.00,,---,0.00,VWS V14.00,2013-03-05 17:30:00,
2013-03-05 12:31:00,75.5,50.2,30.12,SW,215,0.0,5.0,41,0.00,,---,0.00,VWS V14.00,2013-03-05 17:31:00,
2013-03-05 12:35:00,77.8,52.9,30.08,SW,219,0.0,8.0,42,0.00,,---,0.00,VWS V14.00,2013-03-05 17:35:00,
2013-03-05 12:36:00,75.7,51.6,30.11,SW,219,5.0,6.0,43,0.00,,---,0.00,VWS V14.00,2013-03-05 17:36:00,
2013-03-05 12:40:00,77.8,53.5,30.08,SSE,149,2.0,11.0,43,0.00,,---,0.00,VWS V14.00,2013-03-05 17:40:00,
2013-03-05 12:41:00,76.2,50.8,30.11,SSW,195,6.0,12.0,41,0.00,,---,0.00,VWS V14.00,2013-03-05 17:41:00,
2013-03-05 12:45:00,78.0,54.3,30.08,SSW,209,6.0,10.0,44,0.00,,---,0.00,VWS V14.00,2013-03-05 17:45:00,
2013-03-05 12:46:00,76.1,50.0,30.11,SSW,211,4.0,6.0,40,0.00,,---,0.00,VWS V14.00,2013-03-05 17:46:00,
2013-03-05 12:50:00,76.4,51.0,30.11,SSW,198,2.0,5.0,41,0.00,,---,0.00,VWS V14.00,2013-03-05 17:50:00,
2013-03-05 12:55:00,78.3,54.6,30.08,SW,225,2.0,13.0,44,0.00,,---,0.00,VWS V14.00,2013-03-05 17:55:00,
2013-03-05 12:56:00,77.0,52.8,30.11,South,190,4.0,10.0,43,0.00,,---,0.00,VWS V14.00,2013-03-05 17:56:00,
2013-03-05 13:00:00,77.4,53.2,30.10,SW,229,1.0,7.0,43,0.00,,---,0.00,VWS V14.00,2013-03-05 18:00:00,
2013-03-05 13:05:00,78.5,54.8,30.07,WSW,255,0.0,4.0,44,0.00,,---,0.00,VWS V14.00,2013-03-05 18:05:00,
2013-03-05 13:06:00,77.1,50.3,30.10,SSW,213,8.0,11.0,39,0.00,,---,0.00,VWS V14.00,2013-03-05 18:06:00,
2013-03-05 13:10:00,78.4,54.7,30.07,West,271,0.0,15.0,44,0.00,,---,0.00,VWS V14.00,2013-03-05 18:10:00,
2013-03-05 13:11:00,76.9,51.4,30.09,SW,225,2.0,7.0,41,0.00,,---,0.00,VWS V14.00,2013-03-05 18:11:00,
2013-03-05 13:15:00,78.7,53.7,30.07,SW,226,5.0,10.0,42,0.00,,---,0.00,VWS V14.00,2013-03-05 18:15:00,
2013-03-05 13:16:00,77.1,51.6,30.09,SW,231,5.0,6.0,41,0.00,,---,0.00,VWS V14.00,2013-03-05 18:16:00,
2013-03-05 13:20:00,79.0,54.6,30.07,WSW,239,0.0,7.0,43,0.00,,---,0.00,VWS V14.00,2013-03-05 18:20:00,
2013-03-05 13:21:00,77.5,52.6,30.09,SSW,206,4.0,8.0,42,0.00,,---,0.00,VWS V14.00,2013-03-05 18:21:00,
2013-03-05 13:25:00,77.7,52.2,30.09,SSW,202,8.0,10.0,41,0.00,,---,0.00,VWS V14.00,2013-03-05 18:25:00,
2013-03-05 13:30:00,77.4,53.8,30.09,SW,214,6.0,8.0,44,0.00,,---,0.00,VWS V14.00,2013-03-05 18:30:00,
2013-03-05 13:35:00,77.8,51.6,30.08,SW,215,1.0,11.0,40,0.00,,---,0.00,VWS V14.00,2013-03-05 18:35:00,
2013-03-05 13:40:00,77.9,53.0,30.08,SE,132,1.0,5.0,42,0.00,,---,0.00,VWS V14.00,2013-03-05 18:40:00,
2013-03-05 13:45:00,78.1,55.0,30.08,SSW,196,7.0,7.0,45,0.00,,---,0.00,VWS V14.00,2013-03-05 18:45:00,
2013-03-05 13:50:00,78.3,54.0,30.08,WSW,249,0.0,5.0,43,0.00,,---,0.00,VWS V14.00,2013-03-05 18:50:00,
2013-03-05 13:55:00,78.3,54.0,30.07,SW,224,0.0,6.0,43,0.00,,---,0.00,VWS V14.00,2013-03-05 18:55:00,
2013-03-05 14:00:00,78.3,55.2,30.07,SSW,211,1.0,2.0,45,0.00,,---,0.00,VWS V14.00,2013-03-05 19:00:00,
2013-03-05 14:05:00,78.6,53.6,30.07,SW,232,9.0,13.0,42,0.00,,---,0.00,VWS V14.00,2013-03-05 19:05:00,
2013-03-05 14:10:00,78.4,54.1,30.07,West,271,4.0,4.0,43,0.00,,---,0.00,VWS V14.00,2013-03-05 19:10:00,
2013-03-05 14:15:00,78.8,54.4,30.07,SW,229,0.0,5.0,43,0.00,,---,0.00,VWS V14.00,2013-03-05 19:15:00,
2013-03-05 14:20:00,79.0,54.0,30.07,SSW,213,1.0,5.0,42,0.00,,---,0.00,VWS V14.00,2013-03-05 19:20:00,
2013-03-05 14:25:00,78.5,53.5,30.07,SW,215,4.0,8.0,42,0.00,,---,0.00,VWS V14.00,2013-03-05 19:25:00,
2013-03-05 14:30:00,78.1,55.0,30.07,SW,234,8.0,8.0,45,0.00,,---,0.00,VWS V14.00,2013-03-05 19:30:00,
2013-03-05 14:35:00,78.2,53.9,30.07,SSW,209,4.0,5.0,43,0.00,,---,0.00,VWS V14.00,2013-03-05 19:35:00,
2013-03-05 14:40:00,78.4,54.1,30.07,SW,219,1.0,6.0,43,0.00,,---,0.00,VWS V14.00,2013-03-05 19:40:00,
2013-03-05 14:45:00,78.8,54.4,30.07,SW,232,5.0,11.0,43,0.00,,---,0.00,VWS V14.00,2013-03-05 19:45:00,
2013-03-05 14:50:00,78.4,55.3,30.07,SW,218,9.0,9.0,45,0.00,,---,0.00,VWS V14.00,2013-03-05 19:50:00,
2013-03-05 14:55:00,78.4,54.7,30.07,West,275,0.0,7.0,44,0.00,,---,0.00,VWS V14.00,2013-03-05 19:55:00,
2013-03-05 15:00:00,78.5,54.8,30.07,WSW,242,8.0,12.0,44,0.00,,---,0.00,VWS V14.00,2013-03-05 20:00:00,
2013-03-05 15:05:00,77.9,54.9,30.07,SW,236,2.0,9.0,45,0.00,,---,0.00,VWS V14.00,2013-03-05 20:05:00,
2013-03-05 15:10:00,77.6,54.0,30.07,SSW,211,6.0,11.0,44,0.00,,---,0.00,VWS V14.00,2013-03-05 20:10:00,
2013-03-05 15:15:00,77.2,54.2,30.07,SSW,200,5.0,14.0,45,0.00,,---,0.00,VWS V14.00,2013-03-05 20:15:00,
2013-03-05 15:20:00,76.5,54.2,30.07,SW,216,0.0,10.0,46,0.00,,---,0.00,VWS V14.00,2013-03-05 20:20:00,
2013-03-05 15:25:00,76.7,54.4,30.07,SSW,208,6.0,10.0,46,0.00,,---,0.00,VWS V14.00,2013-03-05 20:25:00,
2013-03-05 15:30:00,76.8,53.9,30.07,SSW,200,5.0,6.0,45,0.00,,---,0.00,VWS V14.00,2013-03-05 20:30:00,
2013-03-05 15:35:00,76.3,54.6,30.07,SSW,212,6.0,10.0,47,0.00,,---,0.00,VWS V14.00,2013-03-05 20:35:00,
2013-03-05 15:40:00,76.2,53.3,30.07,SW,224,5.0,8.0,45,0.00,,---,0.00,VWS V14.00,2013-03-05 20:40:00,
2013-03-05 15:45:00,76.2,53.3,30.07,SSW,211,1.0,7.0,45,0.00,,---,0.00,VWS V14.00,2013-03-05 20:45:00,
2013-03-05 15:50:00,76.0,53.2,30.07,SSW,209,7.0,11.0,45,0.00,,---,0.00,VWS V14.00,2013-03-05 20:50:00,
2013-03-05 15:55:00,75.9,54.2,30.07,SW,218,0.0,7.0,47,0.00,,---,0.00,VWS V14.00,2013-03-05 20:55:00,
2013-03-05 16:00:00,76.1,53.8,30.07,SW,224,6.0,8.0,46,0.00,,---,0.00,VWS V14.00,2013-03-05 21:00:00,
2013-03-05 16:05:00,76.2,53.3,30.07,SSW,207,3.0,13.0,45,0.00,,---,0.00,VWS V14.00,2013-03-05 21:05:00,
2013-03-05 16:10:00,75.8,53.0,30.07,West,274,0.0,2.0,45,0.00,,---,0.00,VWS V14.00,2013-03-05 21:10:00,
2013-03-05 16:15:00,76.2,53.3,30.07,SW,234,8.0,11.0,45,0.00,,---,0.00,VWS V14.00,2013-03-05 21:15:00,
2013-03-05 16:20:00,75.3,52.5,30.07,SW,218,6.0,6.0,45,0.00,,---,0.00,VWS V14.00,2013-03-05 21:20:00,
2013-03-05 16:25:00,74.4,52.3,30.08,SW,225,0.0,9.0,46,0.00,,---,0.00,VWS V14.00,2013-03-05 21:25:00,
2013-03-05 16:30:00,74.2,54.4,30.08,SW,227,0.0,1.0,50,0.00,,---,0.00,VWS V14.00,2013-03-05 21:30:00,
2013-03-05 16:35:00,74.1,53.7,30.08,West,270,8.0,9.0,49,0.00,,---,0.00,VWS V14.00,2013-03-05 21:35:00,
2013-03-05 16:40:00,73.8,53.5,30.08,SSW,200,1.0,10.0,49,0.00,,---,0.00,VWS V14.00,2013-03-05 21:40:00,
2013-03-05 16:45:00,73.3,53.6,30.08,SW,222,2.0,7.0,50,0.00,,---,0.00,VWS V14.00,2013-03-05 21:45:00,
2013-03-05 16:50:00,72.7,53.5,30.08,West,263,1.0,8.0,51,0.00,,---,0.00,VWS V14.00,2013-03-05 21:50:00,
2013-03-05 16:55:00,72.5,53.4,30.08,WNW,286,0.0,10.0,51,0.00,,---,0.00,VWS V14.00,2013-03-05 21:55:00,
2013-03-05 17:00:00,72.3,53.7,30.08,South,189,4.0,9.0,52,0.00,,---,0.00,VWS V14.00,2013-03-05 22:00:00,
2013-03-05 17:05:00,72.0,54.0,30.08,SW,225,0.0,1.0,53,0.00,,---,0.00,VWS V14.00,2013-03-05 22:05:00,
2013-03-05 17:10:00,72.0,54.0,30.08,WNW,301,0.0,8.0,53,0.00,,---,0.00,VWS V14.00,2013-03-05 22:10:00,
2013-03-05 17:15:00,71.7,53.7,30.08,SW,218,5.0,5.0,53,0.00,,---,0.00,VWS V14.00,2013-03-05 22:15:00,
2013-03-05 17:20:00,71.3,52.8,30.08,WSW,242,14.0,14.0,52,0.00,,---,0.00,VWS V14.00,2013-03-05 22:20:00,
2013-03-05 17:25:00,71.0,53.5,30.08,SW,216,5.0,8.0,54,0.00,,---,0.00,VWS V14.00,2013-03-05 22:25:00,
2013-03-05 17:30:00,70.8,54.3,30.08,SW,214,5.0,6.0,56,0.00,,---,0.00,VWS V14.00,2013-03-05 22:30:00,
2013-03-05 17:35:00,70.7,55.2,30.09,SW,234,1.0,7.0,58,0.00,,---,0.00,VWS V14.00,2013-03-05 22:35:00,
2013-03-05 17:40:00,70.4,54.9,30.09,SW,229,7.0,7.0,58,0.00,,---,0.00,VWS V14.00,2013-03-05 22:40:00,
2013-03-05 17:45:00,70.1,55.1,30.09,WSW,237,4.0,10.0,59,0.00,,---,0.00,VWS V14.00,2013-03-05 22:45:00,
2013-03-05 17:50:00,69.8,55.3,30.09,SSW,213,0.0,1.0,60,0.00,,---,0.00,VWS V14.00,2013-03-05 22:50:00,
2013-03-05 17:55:00,69.5,55.9,30.09,SW,219,0.0,4.0,62,0.00,,---,0.00,VWS V14.00,2013-03-05 22:55:00,
2013-03-05 18:00:00,69.2,55.6,30.10,WSW,257,0.0,8.0,62,0.00,,---,0.00,VWS V14.00,2013-03-05 23:00:00,
2013-03-05 18:05:00,68.8,55.3,30.10,SW,227,0.0,7.0,62,0.00,,---,0.00,VWS V14.00,2013-03-05 23:05:00,
2013-03-05 18:10:00,68.6,55.5,30.10,SW,229,0.0,4.0,63,0.00,,---,0.00,VWS V14.00,2013-03-05 23:10:00,
2013-03-05 18:15:00,68.5,55.9,30.10,SW,232,0.0,4.0,64,0.00,,---,0.00,VWS V14.00,2013-03-05 23:15:00,
2013-03-05 18:20:00,68.1,55.9,30.10,SW,231,0.0,2.0,65,0.00,,---,0.00,VWS V14.00,2013-03-05 23:20:00,
2013-03-05 18:25:00,67.7,56.0,30.10,SW,223,0.0,4.0,66,0.00,,---,0.00,VWS V14.00,2013-03-05 23:25:00,
2013-03-05 18:30:00,67.4,56.1,30.09,SSW,213,2.0,2.0,67,0.00,,---,0.00,VWS V14.00,2013-03-05 23:30:00,
2013-03-05 18:35:00,67.0,56.1,30.09,SW,219,0.0,0.0,68,0.00,,---,0.00,VWS V14.00,2013-03-05 23:35:00,
2013-03-05 18:40:00,66.7,55.8,30.09,SW,221,0.0,0.0,68,0.00,,---,0.00,VWS V14.00,2013-03-05 23:40:00,
2013-03-05 18:45:00,66.3,55.8,30.09,SW,232,4.0,5.0,69,0.00,,---,0.00,VWS V14.00,2013-03-05 23:45:00,
2013-03-05 18:50:00,66.0,56.0,30.09,SW,230,0.0,0.0,70,0.00,,---,0.00,VWS V14.00,2013-03-05 23:50:00,
2013-03-05 18:55:00,65.8,56.2,30.09,SW,230,0.0,0.0,71,0.00,,---,0.00,VWS V14.00,2013-03-05 23:55:00,
2013-03-05 19:00:00,65.4,55.8,30.09,SW,230,0.0,0.0,71,0.00,,---,0.00,VWS V14.00,2013-03-06 00:00:00,
2013-03-05 19:05:00,65.0,55.8,30.09,SW,230,0.0,0.0,72,0.00,,---,0.00,VWS V14.00,2013-03-06 00:05:00,
2013-03-05 19:10:00,64.6,55.8,30.09,SW,230,0.0,0.0,73,0.00,,---,0.00,VWS V14.00,2013-03-06 00:10:00,
2013-03-05 19:15:00,64.1,55.3,30.09,SW,230,0.0,0.0,73,0.00,,---,0.00,VWS V14.00,2013-03-06 00:15:00,
2013-03-05 19:20:00,63.7,55.6,30.09,SW,230,0.0,0.0,75,0.00,,---,0.00,VWS V14.00,2013-03-06 00:20:00,
2013-03-05 19:25:00,63.2,55.2,30.09,SW,230,0.0,0.0,75,0.00,,---,0.00,VWS V14.00,2013-03-06 00:25:00,
2013-03-05 19:30:00,62.8,55.5,30.09,SW,230,0.0,0.0,77,0.00,,---,0.00,VWS V14.00,2013-03-06 00:30:00,
2013-03-05 19:35:00,62.6,55.7,30.09,SW,230,0.0,0.0,78,0.00,,---,0.00,VWS V14.00,2013-03-06 00:35:00,
2013-03-05 19:40:00,62.7,55.8,30.09,SW,230,0.0,0.0,78,0.00,,---,0.00,VWS V14.00,2013-03-06 00:40:00,
2013-03-05 19:45:00,62.7,55.8,30.09,SW,229,0.0,1.0,78,0.00,,---,0.00,VWS V14.00,2013-03-06 00:45:00,
2013-03-05 19:50:00,62.7,55.8,30.09,SW,229,0.0,0.0,78,0.00,,---,0.00,VWS V14.00,2013-03-06 00:50:00,
2013-03-05 19:55:00,62.6,56.0,30.08,SW,229,0.0,0.0,79,0.00,,---,0.00,VWS V14.00,2013-03-06 00:55:00,
2013-03-05 20:00:00,62.5,55.9,30.08,SW,229,0.0,0.0,79,0.00,,---,0.00,VWS V14.00,2013-03-06 01:00:00,
2013-03-05 20:05:00,62.2,55.6,30.09,SW,229,0.0,0.0,79,0.00,,---,0.00,VWS V14.00,2013-03-06 01:05:00,
2013-03-05 20:10:00,61.7,55.1,30.09,SW,229,0.0,0.0,79,0.00,,---,0.00,VWS V14.00,2013-03-06 01:10:00,
2013-03-05 20:15:00,61.2,55.3,30.09,SW,229,0.0,0.0,81,0.00,,---,0.00,VWS V14.00,2013-03-06 01:15:00,
2013-03-05 20:20:00,60.9,55.4,30.09,SW,229,0.0,0.0,82,0.00,,---,0.00,VWS V14.00,2013-03-06 01:20:00,
2013-03-05 20:25:00,60.6,55.4,30.09,SW,229,0.0,0.0,83,0.00,,---,0.00,VWS V14.00,2013-03-06 01:25:00,
2013-03-05 20:30:00,60.4,55.5,30.09,SW,229,0.0,0.0,84,0.00,,---,0.00,VWS V14.00,2013-03-06 01:30:00,
2013-03-05 20:35:00,60.3,55.5,30.08,SW,229,0.0,0.0,84,0.00,,---,0.00,VWS V14.00,2013-03-06 01:35:00,
2013-03-05 20:40:00,60.2,55.7,30.08,SW,229,0.0,0.0,85,0.00,,---,0.00,VWS V14.00,2013-03-06 01:40:00,
2013-03-05 20:45:00,60.0,55.5,30.08,SW,229,0.0,0.0,85,0.00,,---,0.00,VWS V14.00,2013-03-06 01:45:00,
2013-03-05 20:50:00,59.8,55.3,30.08,SW,229,0.0,0.0,85,0.00,,---,0.00,VWS V14.00,2013-03-06 01:50:00,
2013-03-05 20:55:00,59.6,55.1,30.08,SW,229,0.0,0.0,85,0.00,,---,0.00,VWS V14.00,2013-03-06 01:55:00,
2013-03-05 21:00:00,59.3,54.8,30.09,SW,229,0.0,0.0,85,0.00,,---,0.00,VWS V14.00,2013-03-06 02:00:00,
2013-03-05 21:05:00,58.9,54.7,30.08,SW,229,0.0,0.0,86,0.00,,---,0.00,VWS V14.00,2013-03-06 02:05:00,
2013-03-05 21:10:00,58.5,54.7,30.08,SW,229,0.0,0.0,87,0.00,,---,0.00,VWS V14.00,2013-03-06 02:10:00,
2013-03-05 21:15:00,58.2,54.4,30.08,SW,229,0.0,0.0,87,0.00,,---,0.00,VWS V14.00,2013-03-06 02:15:00,
2013-03-05 21:20:00,57.9,54.4,30.08,SW,229,0.0,0.0,88,0.00,,---,0.00,VWS V14.00,2013-03-06 02:20:00,
2013-03-05 21:25:00,57.6,54.1,30.08,SW,229,0.0,0.0,88,0.00,,---,0.00,VWS V14.00,2013-03-06 02:25:00,
2013-03-05 21:30:00,57.3,53.8,30.08,SW,229,0.0,0.0,88,0.00,,---,0.00,VWS V14.00,2013-03-06 02:30:00,
2013-03-05 21:36:00,57.0,53.8,30.08,SW,229,0.0,0.0,89,0.00,,---,0.00,VWS V14.00,2013-03-06 02:36:00,
2013-03-05 21:41:00,56.7,53.8,30.08,SW,229,0.0,0.0,90,0.00,,---,0.00,VWS V14.00,2013-03-06 02:41:00,
2013-03-05 21:45:00,54.7,52.7,30.09,SW,229,0.0,0.0,93,0.00,,---,0.00,VWS V14.00,2013-03-06 02:45:00,
2013-03-05 21:46:00,56.4,53.5,30.08,SW,229,0.0,0.0,90,0.00,,---,0.00,VWS V14.00,2013-03-06 02:46:00,
2013-03-05 21:50:00,54.8,53.1,30.08,SW,229,0.0,0.0,94,0.00,,---,0.00,VWS V14.00,2013-03-06 02:50:00,
2013-03-05 21:51:00,56.1,53.2,30.09,SW,229,0.0,0.0,90,0.00,,---,0.00,VWS V14.00,2013-03-06 02:51:00,
2013-03-05 21:55:00,54.8,53.1,30.08,SW,229,0.0,0.0,94,0.00,,---,0.00,VWS V14.00,2013-03-06 02:55:00,
2013-03-05 21:56:00,55.8,52.9,30.09,SW,229,0.0,0.0,90,0.00,,---,0.00,VWS V14.00,2013-03-06 02:56:00,
2013-03-05 22:00:00,54.9,53.2,30.08,SW,229,0.0,0.0,94,0.00,,---,0.00,VWS V14.00,2013-03-06 03:00:00,
2013-03-05 22:01:00,55.5,52.9,30.09,SW,229,0.0,0.0,91,0.00,,---,0.00,VWS V14.00,2013-03-06 03:01:00,
2013-03-05 22:05:00,55.2,53.8,30.08,SW,229,0.0,0.0,95,0.00,,---,0.00,VWS V14.00,2013-03-06 03:05:00,
2013-03-05 22:06:00,55.2,52.6,30.09,SW,229,0.0,0.0,91,0.00,,---,0.00,VWS V14.00,2013-03-06 03:06:00,
2013-03-05 22:10:00,55.3,53.9,30.08,SW,229,0.0,0.0,95,0.00,,---,0.00,VWS V14.00,2013-03-06 03:10:00,
2013-03-05 22:11:00,55.0,52.4,30.09,SW,229,0.0,0.0,91,0.00,,---,0.00,VWS V14.00,2013-03-06 03:11:00,
2013-03-05 22:16:00,54.9,52.6,30.09,SW,229,0.0,0.0,92,0.00,,---,0.00,VWS V14.00,2013-03-06 03:16:00,
2013-03-05 22:20:00,55.1,53.7,30.08,SW,229,0.0,0.0,95,0.00,,---,0.00,VWS V14.00,2013-03-06 03:20:00,
2013-03-05 22:21:00,54.9,52.9,30.09,SW,229,0.0,0.0,93,0.00,,---,0.00,VWS V14.00,2013-03-06 03:21:00,
2013-03-05 22:25:00,55.1,53.7,30.08,SW,229,0.0,0.0,95,0.00,,---,0.00,VWS V14.00,2013-03-06 03:25:00,
2013-03-05 22:26:00,54.9,52.9,30.09,SW,229,0.0,0.0,93,0.00,,---,0.00,VWS V14.00,2013-03-06 03:26:00,
2013-03-05 22:30:00,55.3,53.9,30.08,SW,229,0.0,0.0,95,0.00,,---,0.00,VWS V14.00,2013-03-06 03:30:00,
2013-03-05 22:31:00,54.8,52.8,30.09,SW,229,0.0,0.0,93,0.00,,---,0.00,VWS V14.00,2013-03-06 03:31:00,
2013-03-05 22:35:00,55.4,54.0,30.07,SW,229,0.0,0.0,95,0.00,,---,0.00,VWS V14.00,2013-03-06 03:35:00,
2013-03-05 22:36:00,54.8,52.8,30.09,SW,229,0.0,0.0,93,0.00,,---,0.00,VWS V14.00,2013-03-06 03:36:00,
2013-03-05 22:40:00,55.4,54.0,30.07,SW,229,0.0,0.0,95,0.00,,---,0.00,VWS V14.00,2013-03-06 03:40:00,
2013-03-05 22:41:00,54.8,52.8,30.09,SW,229,0.0,0.0,93,0.00,,---,0.00,VWS V14.00,2013-03-06 03:41:00,
2013-03-05 22:45:00,55.3,53.9,30.07,SW,229,0.0,0.0,95,0.00,,---,0.00,VWS V14.00,2013-03-06 03:45:00,
2013-03-05 22:46:00,54.7,53.0,30.09,SW,229,0.0,0.0,94,0.00,,---,0.00,VWS V14.00,2013-03-06 03:46:00,
2013-03-05 22:50:00,55.1,53.7,30.07,SW,229,0.0,0.0,95,0.00,,---,0.00,VWS V14.00,2013-03-06 03:50:00,
2013-03-05 22:51:00,54.8,53.1,30.09,SW,229,0.0,0.0,94,0.00,,---,0.00,VWS V14.00,2013-03-06 03:51:00,
2013-03-05 22:55:00,55.1,53.7,30.06,SW,229,0.0,0.0,95,0.00,,---,0.00,VWS V14.00,2013-03-06 03:55:00,
2013-03-05 22:56:00,54.8,53.1,30.08,SW,229,0.0,0.0,94,0.00,,---,0.00,VWS V14.00,2013-03-06 03:56:00,
2013-03-05 23:00:00,55.0,53.6,30.06,SW,229,0.0,0.0,95,0.00,,---,0.00,VWS V14.00,2013-03-06 04:00:00,
2013-03-05 23:01:00,55.0,53.6,30.08,SW,229,0.0,0.0,95,0.00,,---,0.00,VWS V14.00,2013-03-06 04:01:00,
2013-03-05 23:05:00,55.1,53.7,30.06,SW,229,0.0,0.0,95,0.00,,---,0.00,VWS V14.00,2013-03-06 04:05:00,
2013-03-05 23:06:00,55.2,53.8,30.08,SW,229,0.0,0.0,95,0.00,,---,0.00,VWS V14.00,2013-03-06 04:06:00,
2013-03-05 23:10:00,55.0,53.6,30.06,SW,229,0.0,0.0,95,0.00,,---,0.00,VWS V14.00,2013-03-06 04:10:00,
2013-03-05 23:11:00,55.3,53.9,30.08,SW,229,0.0,0.0,95,0.00,,---,0.00,VWS V14.00,2013-03-06 04:11:00,
2013-03-05 23:15:00,55.0,53.6,30.06,SW,229,0.0,0.0,95,0.00,,---,0.00,VWS V14.00,2013-03-06 04:15:00,
2013-03-05 23:16:00,55.2,53.5,30.08,SW,229,0.0,0.0,94,0.00,,---,0.00,VWS V14.00,2013-03-06 04:16:00,
2013-03-05 23:21:00,55.1,53.7,30.08,SW,229,0.0,0.0,95,0.00,,---,0.00,VWS V14.00,2013-03-06 04:21:00,
2013-03-05 23:25:00,54.8,53.4,30.05,SW,229,0.0,0.0,95,0.00,,---,0.00,VWS V14.00,2013-03-06 04:25:00,
2013-03-05 23:26:00,55.2,53.8,30.08,SW,229,0.0,0.0,95,0.00,,---,0.00,VWS V14.00,2013-03-06 04:26:00,
2013-03-05 23:30:00,54.8,53.7,30.05,SW,229,0.0,0.0,96,0.00,,---,0.00,VWS V14.00,2013-03-06 04:30:00,
2013-03-05 23:31:00,55.3,53.9,30.07,SW,229,0.0,0.0,95,0.00,,---,0.00,VWS V14.00,2013-03-06 04:31:00,
2013-03-05 23:35:00,54.8,53.7,30.05,SW,229,0.0,1.0,96,0.00,,---,0.00,VWS V14.00,2013-03-06 04:35:00,
2013-03-05 23:36:00,55.4,54.0,30.07,SW,229,0.0,0.0,95,0.00,,---,0.00,VWS V14.00,2013-03-06 04:36:00,
2013-03-05 23:40:00,54.8,53.7,30.05,SW,229,0.0,0.0,96,0.00,,---,0.00,VWS V14.00,2013-03-06 04:40:00,
2013-03-05 23:41:00,55.4,54.0,30.07,SW,229,0.0,0.0,95,0.00,,---,0.00,VWS V14.00,2013-03-06 04:41:00,
2013-03-05 23:45:00,54.7,53.6,30.05,SW,229,0.0,0.0,96,0.00,,---,0.00,VWS V14.00,2013-03-06 04:45:00,
2013-03-05 23:46:00,55.3,53.9,30.07,SW,229,0.0,0.0,95,0.00,,---,0.00,VWS V14.00,2013-03-06 04:46:00,
2013-03-05 23:50:00,54.7,53.6,30.05,SW,229,0.0,0.0,96,0.00,,---,0.00,VWS V14.00,2013-03-06 04:50:00,
2013-03-05 23:51:00,55.1,53.7,30.07,SW,229,0.0,0.0,95,0.00,,---,0.00,VWS V14.00,2013-03-06 04:51:00,
2013-03-05 23:55:00,54.9,53.8,30.05,SW,229,0.0,0.0,96,0.00,,---,0.00,VWS V14.00,2013-03-06 04:55:00,
2013-03-05 23:56:00,55.1,53.7,30.06,SW,229,0.0,0.0,95,0.00,,---,0.00,VWS V14.00,2013-03-06 04:56:00,